This demonstration page uses our WeatherBlox Daily Observations layout. Learn more.

Hourly Observations for October 24, 2015

Temp ( °F °C ) Dew Point ( °F °C ) Humidity (%) Winds ( mph kmh ) Pressure ( in mb ) Visibility ( mi km ) Precip ( " mm )
12:15 am 00:15 Partly Cloudy 48 9.1 43 6 81 81 NW 9 15 30.09 1019 10 16.0934 0 0
12:35 am 00:35 Mostly Cloudy 49 9.2 43 6.1 81 81 NNW 14 22 30.09 1019 10 16.0934 0 0
12:55 am 00:55 Partly Cloudy 49 9.5 41 5.1 74 74 NW 10 17 30.06 1018 10 16.0934 0 0
1:15 am 01:15 Clear 48 9.1 40 4.4 73 73 NNW 18 30 30.09 1019 10 16.0934 0 0
1:35 am 01:35 Clear 47 8.6 39 4 73 73 NW 9 15 30.09 1019 10 16.0934 0 0
1:55 am 01:55 Clear 46 8 39 3.9 76 76 NNW 9 15 30.09 1019 10 16.0934 0 0
2:15 am 02:15 Clear 46 7.6 38 3.5 76 76 NW 8 13 30.12 1020 10 16.0934 0 0
2:35 am 02:35 Clear 45 7.1 38 3.1 76 76 NW 8 13 30.12 1020 10 16.0934 0 0
2:55 am 02:55 Clear 44 6.7 37 2.8 76 76 NW 8 13 30.12 1020 10 16.0934 0 0
3:15 am 03:15 Clear 43 6.1 36 2.4 77 77 NW 8 13 30.15 1021 10 16.0934 0 0
3:35 am 03:35 Clear 42 5.3 36 2.1 80 80 NW 8 13 30.15 1021 10 16.0934 0 0
3:55 am 03:55 Clear 40 4.7 35 1.8 82 82 NW 8 13 30.15 1021 10 16.0934 0 0
4:15 am 04:15 Clear 40 4.7 35 1.8 82 82 NW 9 15 30.15 1021 10 16.0934 0 0
4:35 am 04:35 Clear 41 5 35 1.9 81 81 NW 9 15 30.15 1021 10 16.0934 0 0
4:55 am 04:55 Clear 41 5.1 35 1.5 78 78 NW 9 15 30.18 1022 10 16.0934 0 0
5:15 am 05:15 Clear 40 4.7 35 1.5 80 80 NW 9 15 30.18 1022 10 16.0934 0 0
5:35 am 05:35 Clear 40 4.7 35 1.4 79 79 NW 8 13 30.18 1022 10 16.0934 0 0
5:55 am 05:55 Clear 39 4 34 1.1 82 82 NW 8 13 30.18 1022 10 16.0934 0 0
6:15 am 06:15 Clear 38 3.6 34 1 83 83 NW 8 13 30.18 1022 10 16.0934 0 0
6:35 am 06:35 Clear 38 3.5 34 1 84 84 NW 8 13 30.18 1022 10 16.0934 0 0
6:55 am 06:55 Clear 38 3.2 33 0.7 84 84 NW 7 11 30.21 1023 10 16.0934 0 0
7:15 am 07:15 Clear 38 3.3 33 0.8 84 84 NW 9 15 30.24 1024 10 16.0934 0 0
7:35 am 07:35 Clear 38 3.4 33 0.8 83 83 NW 8 13 30.24 1024 10 16.0934 0 0
7:55 am 07:55 Clear 38 3.6 33 0.5 80 80 WNW 7 11 30.24 1024 10 16.0934 0 0
8:15 am 08:15 Sunny 37 2.9 33 0.3 83 83 NW 6 9 30.24 1024 10 16.0934 0 0
8:35 am 08:35 Sunny 38 3.6 34 0.9 83 83 NW 7 11 30.27 1025 10 16.0934 0 0
8:55 am 08:55 Sunny 40 4.3 34 1.2 80 80 WNW 7 11 30.27 1025 10 16.0934 0 0
9:15 am 09:15 Sunny 42 5.5 35 1.5 76 76 NW 7 11 30.24 1024 10 16.0934 0 0
9:35 am 09:35 Sunny 44 6.5 35 1.6 71 71 NW 8 13 30.24 1024 10 16.0934 0 0
9:55 am 09:55 Sunny 46 7.5 35 1.8 67 67 NW 8 13 30.24 1024 10 16.0934 0 0
10:15 am 10:15 Sunny 47 8.2 35 1.9 65 65 NNW 8 13 30.24 1024 10 16.0934 0 0
10:35 am 10:35 Sunny 49 9.2 35 1.9 61 61 N 7 11 30.24 1024 10 16.0934 0 0
10:55 am 10:55 Sunny 50 10.1 35 1.5 55 55 NNW 3 6 30.24 1024 10 16.0934 0 0
11:15 am 11:15 Sunny 51 10.7 34 1.2 52 52 NNW 5 7 30.24 1024 10 16.0934 0 0
11:35 am 11:35 Sunny 53 11.5 34 1 49 49 N 5 7 30.21 1023 10 16.0934 0 0
11:55 am 11:55 Sunny 54 12.1 32 0.2 44 44 N 6 9 30.21 1023 10 16.0934 0 0
12:15 pm 12:15 Sunny 55 12.6 32 -0.1 42 42 NNW 8 13 30.21 1023 10 16.0934 0 0
12:35 pm 12:35 Sunny 56 13.5 31 -0.3 39 39 NNE 6 9 30.21 1023 10 16.0934 0 0
12:55 pm 12:55 Sunny 57 13.9 30 -1 36 36 NNW 5 7 30.21 1023 10 16.0934 0 0
1:10 pm 13:10 Sunny 58 14.3 30 -1.1 35 35 NW 5 7 30.18 1022 10 16.0934 0 0
1:35 pm 13:35 Sunny 58 14.6 28 -2 32 32 N 7 11 30.15 1021 10 16.0934 0 0
1:55 pm 13:55 Sunny 59 14.9 27 -2.6 30 30 Calm 30.15 1021 10 16.0934 0 0
2:15 pm 14:15 Sunny 59 15.2 28 -2 31 31 N 5 7 30.15 1021 10 16.0934 0 0
2:35 pm 14:35 Sunny 60 15.7 26 -3.5 27 27 W 6 9 30.15 1021 10 16.0934 0 0
2:55 pm 14:55 Sunny 61 15.9 26 -3.5 26 26 Calm 30.12 1020 10 16.0934 0 0
3:15 pm 15:15 Sunny 60 15.8 26 -3.5 27 27 Calm 30.12 1020 10 16.0934 0 0
3:35 pm 15:35 Sunny 62 16.6 27 -2.8 27 27 W 3 6 30.12 1020 10 16.0934 0 0
3:55 pm 15:55 Sunny 62 16.5 26 -3.3 26 26 Calm 30.12 1020 10 16.0934 0 0
4:15 pm 16:15 Sunny 62 16.6 26 -3.4 25 25 Calm 30.12 1020 10 16.0934 0 0
4:35 pm 16:35 Sunny 62 16.8 26 -3.3 25 25 Calm 30.12 1020 10 16.0934 0 0
4:55 pm 16:55 Sunny 62 16.7 26 -3.6 25 25 SW 3 6 30.15 1021 10 16.0934 0 0
5:15 pm 17:15 Sunny 62 16.6 26 -3.6 25 25 Calm 30.15 1021 10 16.0934 0 0
5:35 pm 17:35 Sunny 62 16.6 26 -3.3 26 26 Calm 30.15 1021 10 16.0934 0 0
5:55 pm 17:55 Sunny 62 16.6 28 -2 28 28 SW 5 7 30.15 1021 10 16.0934 0 0
6:15 pm 18:15 Sunny 60 15.8 31 -0.8 32 32 SW 6 9 30.15 1021 10 16.0934 0 0
6:35 pm 18:35 Sunny 58 14.2 32 -0.1 38 38 SW 5 7 30.18 1022 10 16.0934 0 0
6:55 pm 18:55 Clear 56 13.3 32 0 40 40 SW 5 7 30.18 1022 10 16.0934 0 0
7:15 pm 19:15 Clear 55 13 32 0 41 41 SW 3 6 30.18 1022 10 16.0934 0 0
7:35 pm 19:35 Clear 55 12.7 32 0 42 42 SSW 3 6 30.18 1022 10 16.0934 0 0
7:55 pm 19:55 Clear 50 10.1 33 0.6 52 52 SSW 3 6 30.21 1023 10 16.0934 0 0
8:15 pm 20:15 Clear 50 10.1 33 0.6 52 52 Calm 30.21 1023 10 16.0934 0 0
8:35 pm 20:35 Clear 49 9.7 33 0.8 54 54 S 3 6 30.21 1023 10 16.0934 0 0
8:55 pm 20:55 Clear 45 7.2 34 1.2 66 66 ESE 3 6 30.27 1025 10 16.0934 0 0
9:15 pm 21:15 Clear 46 7.6 34 0.9 63 63 Calm 30.24 1024 10 16.0934 0 0
9:35 pm 21:35 Clear 46 7.8 33 0.6 61 61 Calm 30.24 1024 10 16.0934 0 0
9:55 pm 21:55 Clear 46 7.6 33 0.5 61 61 ESE 3 6 30.24 1024 10 16.0934 0 0
10:15 pm 22:15 Clear 46 7.5 33 0.5 62 62 ESE 5 7 30.24 1024 10 16.0934 0 0
10:35 pm 22:35 Clear 44 6.7 32 0 63 63 ESE 6 9 30.27 1025 10 16.0934 0 0
10:55 pm 22:55 Clear 43 5.9 32 0 66 66 SE 3 6 30.27 1025 10 16.0934 0 0
11:15 pm 23:15 Clear 44 6.5 32 -0.2 63 63 SSE 5 7 30.27 1025 10 16.0934 0 0
11:35 pm 23:35 Clear 44 6.9 32 -0.1 61 61 S 5 7 30.27 1025 10 16.0934 0 0
11:55 pm 23:55 Clear 43 6 31 -0.4 64 64 S 6 9 30.27 1025 10 16.0934 0 0

Powered by AerisWeather